Tucson, AZ

6:57 AM MST on August 22, 2019 (GMT -0700)
Tucson International

Weather History for KTUS - May, 2019

Change the Weather History Date:

Tuesday, May 28, 2019

  Actual Average Record
Temperature  
Mean Temperature 67 °F 80 °F  
Max Temperature 83 °F 96 °F 107 °F (1958)
Min Temperature 51 °F 64 °F 45 °F (1905)
Degree Days  
Heating Degree Days 0 0  
Month to date heating degree days 1 3  
Since 1 July heating degree days 1409 1509  
Cooling Degree Days 2 15  
Month to date cooling degree days 161 302  
Year to date cooling degree days 341 456  
Growing Degree Days 16 (Base 50)    
Moisture  
Dew Point 26 °F    
Average Humidity 21    
Maximum Humidity 40    
Minimum Humidity 6    
Precipitation  
Precipitation 0.00 in 0.01 in 0.89 in (1943)
Month to date precipitation 1.22 0.21  
Year to date precipitation 5.03 3.05  
Sea Level Pressure  
Sea Level Pressure 29.76 in    
Wind  
Wind Speed 6 mph (West)    
Max Wind Speed 18 mph    
Max Gust Speed 27 mph    
Visibility 10 miles    
Events      
T = Trace of Precipitation, MM = Missing Value Source: NWS Daily Summary

Daily Weather History Graph

Daily Weather History Graph

Search for Another Location

Airport or City:

Astronomy

May. 28, 2019 Rise Set
Actual Time 5:19 AM MST 7:22 PM MST
Civil Twilight 4:51 AM MST 7:50 PM MST
Nautical Twilight 4:18 AM MST 8:24 PM MST
Astronomical Twilight 3:42 AM MST 9:00 PM MST
Moon 2:07 AM MST (5/28) 2:00 PM MST (5/28)
Length of Visible Light 14h 58m
Length of Day
14h 03m
Waning Crescent, 30% of the Moon is Illuminated
May 28
Waning Crescent
Jun 3
New
Jun 9
First Quarter
Jun 17
Full
Jun 25
Last Quarter

Hourly Weather History & Observations

Time (MST) Temp. Dew Point Humidity Pressure Visibility Wind Dir Wind Speed Gust Speed Precip Events Conditions
12:53 AM 57.9 °F 28.0 °F 32% 29.81 in 10.0 mi SW 5.8 mph - N/A   Clear
1:53 AM 57.0 °F 27.0 °F 32% 29.81 in 10.0 mi SW 3.5 mph - N/A   Clear
2:53 AM 57.0 °F 26.1 °F 30% 29.80 in 10.0 mi South 4.6 mph - N/A   Clear
3:53 AM 54.0 °F 26.1 °F 34% 29.81 in 10.0 mi South 3.5 mph - N/A   Clear
4:53 AM 52.0 °F 28.0 °F 40% 29.82 in 10.0 mi SSE 4.6 mph - N/A   Clear
5:53 AM 52.0 °F 28.0 °F 40% 29.83 in 10.0 mi SE 8.1 mph - N/A   Clear
6:53 AM 55.9 °F 28.0 °F 34% 29.83 in 10.0 mi South 4.6 mph - N/A   Clear
7:53 AM 62.1 °F 28.9 °F 29% 29.83 in 10.0 mi Calm Calm - N/A   Clear
8:53 AM 66.0 °F 28.0 °F 24% 29.83 in 10.0 mi Calm Calm - N/A   Clear
9:53 AM 70.0 °F 26.1 °F 19% 29.81 in 10.0 mi South 4.6 mph - N/A   Clear
10:53 AM 72.0 °F 27.0 °F 19% 29.80 in 10.0 mi Variable 3.5 mph - N/A   Clear
11:53 AM 73.9 °F 26.1 °F 17% 29.78 in 10.0 mi Calm Calm - N/A   Clear
12:53 PM 78.1 °F 27.0 °F 15% 29.76 in 10.0 mi NW 9.2 mph - N/A   Clear
1:53 PM 80.1 °F 25.0 °F 13% 29.73 in 10.0 mi NW 8.1 mph - N/A   Clear
2:53 PM 81.0 °F 25.0 °F 13% 29.71 in 10.0 mi NW 10.4 mph 20.7 mph N/A   Clear
3:53 PM 81.0 °F 25.0 °F 13% 29.68 in 10.0 mi WNW 10.4 mph 25.3 mph N/A   Clear
4:43 PM 81.0 °F 26.1 °F 13% 29.77 in 10.0 mi NNW 13.8 mph 26.5 mph N/A   Clear
4:53 PM 80.1 °F 25.0 °F 13% 29.68 in 10.0 mi North 12.7 mph 23.0 mph N/A   Clear
5:53 PM 80.1 °F 24.1 °F 13% 29.68 in 10.0 mi NNW 11.5 mph 19.6 mph N/A   Clear
6:53 PM 77.0 °F 24.1 °F 14% 29.68 in 10.0 mi North 11.5 mph - N/A   Clear
7:53 PM 73.9 °F 24.1 °F 16% 29.70 in 10.0 mi NNW 6.9 mph - N/A   Clear
8:53 PM 71.1 °F 24.1 °F 17% 29.72 in 10.0 mi NNW 4.6 mph - N/A   Clear
9:53 PM 68.0 °F 25.0 °F 20% 29.74 in 10.0 mi WSW 5.8 mph - N/A   Clear
10:53 PM 64.9 °F 25.0 °F 22% 29.75 in 10.0 mi West 6.9 mph - N/A   Clear
11:53 PM 64.0 °F 25.0 °F 23% 29.76 in 10.0 mi WSW 6.9 mph - N/A   Clear